Location: Sauerland
(51.1981°N, 7.8053°E)
Time: 19:50:08
(UTC+01:00)

ISS - Pass Details

Date: 21 February 2026
Orbit: 416 x 427 km, 51.6° (Epoch: 6 March)

Event Time Altitude Azimuth Distance (km) Brightness Sun altitude
Exits shadow 05:45:50 49° 256° (WSW) 544 -3.7 -17.1°
Maximum altitude 05:46:38 87° 172° (S) 423 -3.9 -16.9°
Drops below altitude 10° 05:49:59 10° 81° (E) 1,495 0.4 -16.4°
Sets 05:52:05 0° 81° (E) 2,358 1.9 -16.1°
